Overview Statistics Trail Chart Weather Telemetry Raw packets
 

This is the latest recevied weather packets stored in our database for station/object W5CDN. If no packets are shown the sender has not sent any weather packets the latest 10 day(s).

<< 9 10 11 12 13 14 15 >>
Time Temp. Humidity Pressure Rain* Wind** Luminosity Snow
1788360536 29.44° C 78% 1014.8 hPa 0 mm - - -
1788360236 28.33° C 78% 1014.8 hPa 0 mm - - -
1788359936 28.33° C 79% 1014.8 hPa 0 mm - - -
1788359636 27.78° C 82% 1014.7 hPa 0 mm - - -
1788359336 27.22° C 84% 1015.1 hPa 0 mm - - -
1788359036 27.22° C 84% 1015.1 hPa 0 mm - - -
1788358736 26.67° C 86% 1014.9 hPa 0 mm - - -
1788358436 27.22° C 87% 1014.9 hPa 0 mm - - -
1788358136 26.67° C 88% 1014.9 hPa 0 mm - - -
1788357836 26.67° C 88% 1015 hPa 0 mm - - -
1788357536 26.67° C 89% 1014.7 hPa 0 mm - - -
1788357236 26.67° C 90% 1015 hPa 0 mm - - -
1788356936 26.11° C 91% 1014.8 hPa 0 mm - - -
1788356636 26.11° C 92% 1015 hPa 0 mm - - -
1788356336 25.56° C 92% 1014.9 hPa 0 mm - - -
1788356036 25.56° C 93% 1015 hPa 0 mm - - -
1788355736 25.56° C 93% 1015 hPa 0 mm - - -
1788355436 25.56° C 94% 1014.8 hPa 0 mm - - -
1788355136 25° C 94% 1014.8 hPa 0 mm - - -
1788354836 25° C 95% 1014.7 hPa 0 mm - - -
1788354536 25° C 96% 1014.8 hPa 0 mm - - -
1788354236 24.44° C 96% 1014.6 hPa 0 mm - - -
1788353936 24.44° C 96% 1014.9 hPa 0 mm - - -
1788353636 24.44° C 96% 1015 hPa 0 mm - - -
1788353336 23.89° C 97% 1015 hPa 0 mm - - -

* Rain latest hour (hover to see other rain measurements)
** Current wind speed in m/s (hover to see current wind gust speed)